Location: Gokavaram
(16.9752°N, 81.0696°E)
Time: 10:53:38
(UTC+00:00)

CZ-3 Stage 3 - Pass Details

Date: 15 May 2026
Orbit: 212 x 9157 km, 30.8° (Epoch: 3 June)

Event Time Altitude Azimuth Distance (km) Brightness Sun altitude
Rises 12:51:12 0° 239° (WSW) 9,368 8.2 1.1°
Reaches altitude 10° 13:00:18 10° 239° (WSW) 6,618 7.4 -0.9°
Maximum altitude 13:16:04 85° 153° (SSE) 1,168 2.9 -4.5°
Drops below altitude 10° 13:20:29 10° 65° (ENE) 2,034 3.8 -5.4°
Enters shadow 13:22:19 -2° 64° (ENE) 2,806 4.5 -5.8°
